TOM512 EGCC-LTAI

Flight info

Callsign TOM512
Flight time N/A
Altitude 37000
Route DESIG L603 DOLAS DCT NAVPI DCT DODEN DCT NEGIX DCT DINKU DCT BESNI DCT GOMIG DCT BEDOX DCT LURID DCT DOBOT DCT YULHU DCT VABEK UL603 OLOTA DCT RUGAS DCT RIKSO UP14 LAVTA N135 NESIL
Aircraft B38M/M-SDE1FGHILORVWXY/HB1

Departure

Time N/A
Airport Manchester Airport (EGCC)

Arrival

Time 2026-05-05 22:38
Airport Antalya International Airport (LTAI)
Time Latitude Longitude Altitude Speed Heading
2026-05-05 20:13 47.57670 13.67357 36835 ft 451 kts 135°
2026-05-05 20:13 47.53557 13.74380 36838 ft 450 kts 135°
2026-05-05 20:14 47.49444 13.81384 36865 ft 451 kts 135°
2026-05-05 20:14 47.45330 13.88373 36847 ft 450 kts 134°
2026-05-05 20:15 47.41221 13.95337 36871 ft 451 kts 134°
2026-05-05 20:15 47.37085 14.02325 36870 ft 451 kts 134°
2026-05-05 20:16 47.32950 14.09293 36881 ft 451 kts 135°
2026-05-05 20:16 47.28829 14.16221 36891 ft 451 kts 135°
2026-05-05 20:17 47.24676 14.23187 36886 ft 452 kts 134°
2026-05-05 20:17 47.20542 14.30100 36889 ft 452 kts 134°
2026-05-05 20:18 47.16386 14.37033 36910 ft 452 kts 134°
2026-05-05 20:18 47.12222 14.43962 36920 ft 451 kts 134°
2026-05-05 20:19 47.08082 14.50833 36914 ft 452 kts 134°
2026-05-05 20:19 47.03901 14.57756 36915 ft 454 kts 134°
2026-05-05 20:20 46.99720 14.64660 36911 ft 454 kts 134°
2026-05-05 20:20 46.95511 14.71591 36925 ft 454 kts 134°
2026-05-05 20:21 46.91299 14.78509 36920 ft 454 kts 134°
2026-05-05 20:21 46.87117 14.85363 36897 ft 454 kts 134°
2026-05-05 20:22 46.82884 14.92282 36907 ft 458 kts 134°
2026-05-05 20:22 46.78633 14.99212 36918 ft 457 kts 134°
2026-05-05 20:23 46.74395 15.06103 36917 ft 456 kts 135°
2026-05-05 20:23 46.70173 15.12951 36914 ft 456 kts 135°
2026-05-05 20:24 46.65923 15.19827 36911 ft 456 kts 135°
2026-05-05 20:24 46.61675 15.26681 36913 ft 456 kts 135°
2026-05-05 20:25 46.57445 15.33491 36916 ft 455 kts 135°
2026-05-05 20:25 46.53179 15.40340 36907 ft 457 kts 135°
2026-05-05 20:26 46.48911 15.47176 36920 ft 457 kts 135°
2026-05-05 20:26 46.44626 15.54022 36909 ft 458 kts 135°
2026-05-05 20:27 46.40360 15.60823 36929 ft 458 kts 135°
2026-05-05 20:27 46.36060 15.67663 36935 ft 458 kts 135°
2026-05-05 20:28 46.31753 15.74498 36939 ft 458 kts 135°
2026-05-05 20:28 46.27481 15.81258 36938 ft 458 kts 136°
2026-05-05 20:29 46.22945 15.87722 36946 ft 458 kts 139°
2026-05-05 20:29 46.18405 15.94195 36950 ft 458 kts 138°
2026-05-05 20:30 46.13862 16.00674 36954 ft 458 kts 138°
2026-05-05 20:30 46.09342 16.07108 36962 ft 458 kts 138°
2026-05-05 20:31 46.04791 16.13568 36968 ft 457 kts 138°
2026-05-05 20:31 46.00273 16.19966 36963 ft 458 kts 138°
2026-05-05 20:32 45.95707 16.26418 36984 ft 459 kts 138°
2026-05-05 20:32 45.91174 16.32806 36978 ft 459 kts 138°
2026-05-05 20:33 45.86591 16.39250 36980 ft 459 kts 138°
2026-05-05 20:33 45.82041 16.45631 36981 ft 459 kts 138°
2026-05-05 20:34 45.78237 16.50955 36980 ft 459 kts 138°
2026-05-05 20:34 45.73654 16.57354 36973 ft 461 kts 139°
2026-05-05 20:35 45.69042 16.63779 36971 ft 462 kts 139°
2026-05-05 20:35 45.64446 16.70166 36972 ft 462 kts 139°
2026-05-05 20:36 45.59825 16.76572 36972 ft 462 kts 139°
2026-05-05 20:36 45.55204 16.82962 36988 ft 462 kts 139°
2026-05-05 20:37 45.50606 16.89304 36979 ft 462 kts 139°
2026-05-05 20:37 45.45982 16.95670 36976 ft 462 kts 139°
2026-05-05 20:38 45.41349 17.02030 36994 ft 462 kts 139°
2026-05-05 20:38 45.36716 17.08375 36983 ft 461 kts 139°
2026-05-05 20:39 45.32117 17.14659 36983 ft 461 kts 139°
2026-05-05 20:39 45.27482 17.20977 36982 ft 461 kts 139°
2026-05-05 20:40 45.22836 17.27297 36979 ft 463 kts 139°
2026-05-05 20:40 45.18207 17.33580 36986 ft 463 kts 139°
2026-05-05 20:41 45.13552 17.39918 36986 ft 463 kts 137°
2026-05-05 20:41 45.08969 17.46366 36989 ft 463 kts 137°
2026-05-05 20:42 45.04388 17.52778 36981 ft 465 kts 138°
2026-05-05 20:42 44.99792 17.59193 36987 ft 466 kts 138°
2026-05-05 20:43 44.95171 17.65628 36987 ft 466 kts 138°
2026-05-05 20:43 44.90543 17.72058 36988 ft 466 kts 138°
2026-05-05 20:44 44.85947 17.78428 36986 ft 466 kts 138°
2026-05-05 20:44 44.81288 17.84869 36994 ft 468 kts 138°
2026-05-05 20:45 44.74326 17.94450 36990 ft 468 kts 138°
2026-05-05 20:45 44.69650 18.00857 36993 ft 469 kts 138°
2026-05-05 20:46 44.64965 18.07264 36985 ft 469 kts 138°
2026-05-05 20:46 44.60274 18.13662 37000 ft 470 kts 138°
2026-05-05 20:47 44.55592 18.20032 37000 ft 470 kts 138°
2026-05-05 20:47 44.50882 18.26427 37003 ft 470 kts 138°
2026-05-05 20:48 44.46207 18.32759 37003 ft 470 kts 138°
2026-05-05 20:48 44.41479 18.39147 37017 ft 472 kts 138°
2026-05-05 20:49 44.36766 18.45500 37009 ft 472 kts 138°
2026-05-05 20:49 44.32028 18.51874 37014 ft 472 kts 139°
2026-05-05 20:50 44.27597 18.58638 37015 ft 474 kts 132°
2026-05-05 20:50 44.23356 18.65632 37021 ft 473 kts 132°
2026-05-05 20:51 44.19103 18.72651 37020 ft 473 kts 132°
2026-05-05 20:51 44.14845 18.79663 37015 ft 473 kts 132°
2026-05-05 20:52 44.10581 18.86667 37030 ft 474 kts 132°
2026-05-05 20:52 44.06331 18.93630 37035 ft 476 kts 132°
2026-05-05 20:53 44.02037 19.00648 37031 ft 475 kts 132°
2026-05-05 20:53 43.97744 19.07649 37037 ft 475 kts 132°
2026-05-05 20:54 43.93447 19.14638 37039 ft 475 kts 132°
2026-05-05 20:54 43.89172 19.21576 37079 ft 477 kts 132°
2026-05-05 20:55 43.84837 19.28591 37034 ft 477 kts 132°
2026-05-05 20:55 43.80515 19.35570 37050 ft 477 kts 132°
2026-05-05 20:56 43.76217 19.42496 37043 ft 477 kts 132°
2026-05-05 20:56 43.71860 19.49497 37052 ft 479 kts 132°
2026-05-05 20:57 43.67503 19.56480 37041 ft 479 kts 132°
2026-05-05 20:57 43.63145 19.63450 37048 ft 479 kts 132°
2026-05-05 20:58 43.58817 19.70354 37046 ft 479 kts 132°
2026-05-05 20:58 43.54437 19.77325 37052 ft 481 kts 132°
2026-05-05 20:59 43.50044 19.84299 37053 ft 481 kts 132°
2026-05-05 20:59 43.45684 19.91205 37069 ft 481 kts 132°
2026-05-05 21:00 43.41276 19.98169 37044 ft 483 kts 132°
2026-05-05 21:00 43.36846 20.05151 37060 ft 483 kts 132°
2026-05-05 21:01 43.32454 20.12058 37067 ft 482 kts 132°
2026-05-05 21:01 43.28016 20.19020 37061 ft 482 kts 132°
2026-05-05 21:02 43.23579 20.25963 37062 ft 485 kts 132°
2026-05-05 21:02 43.19147 20.32881 37067 ft 485 kts 132°
2026-05-05 21:03 43.14684 20.39831 37069 ft 485 kts 132°
2026-05-05 21:03 43.10212 20.46782 37066 ft 486 kts 132°
2026-05-05 21:04 43.05737 20.53723 37061 ft 487 kts 132°
2026-05-05 21:04 43.01268 20.60636 37066 ft 487 kts 132°
2026-05-05 21:05 42.96369 20.67047 37065 ft 487 kts 137°
2026-05-05 21:05 42.91492 20.73397 37052 ft 486 kts 137°
2026-05-05 21:06 42.86599 20.79795 37064 ft 486 kts 137°
2026-05-05 21:06 42.81707 20.86179 37059 ft 485 kts 137°
2026-05-05 21:07 42.76841 20.92515 37069 ft 486 kts 137°
2026-05-05 21:07 42.71948 20.98871 37073 ft 486 kts 137°
2026-05-05 21:08 42.67051 21.05218 37073 ft 485 kts 137°
2026-05-05 21:08 42.62188 21.11508 37064 ft 485 kts 137°
2026-05-05 21:09 42.57262 21.17863 37079 ft 487 kts 137°
2026-05-05 21:09 42.52372 21.24159 37068 ft 486 kts 137°
2026-05-05 21:10 42.47454 21.30474 37053 ft 486 kts 137°
2026-05-05 21:10 42.42530 21.36785 37049 ft 486 kts 137°
2026-05-05 21:11 42.37638 21.43041 37032 ft 486 kts 137°
2026-05-05 21:11 42.32696 21.49343 37034 ft 488 kts 137°
2026-05-05 21:12 42.27748 21.55644 37023 ft 488 kts 137°
2026-05-05 21:12 42.22855 21.61916 37019 ft 488 kts 135°
2026-05-05 21:13 42.18020 21.68375 37016 ft 488 kts 136°
2026-05-05 21:13 42.13202 21.74767 37023 ft 488 kts 136°
2026-05-05 21:14 42.08350 21.81187 37027 ft 488 kts 135°
2026-05-05 21:14 42.03495 21.87595 37014 ft 488 kts 136°
2026-05-05 21:15 41.98674 21.93947 37010 ft 487 kts 136°
2026-05-05 21:15 41.93820 22.00326 37008 ft 487 kts 136°
2026-05-05 21:16 41.88963 22.06694 37019 ft 488 kts 136°
2026-05-05 21:16 41.84093 22.13067 37009 ft 488 kts 136°
2026-05-05 21:17 41.79260 22.19376 37016 ft 488 kts 136°
2026-05-05 21:17 41.74386 22.25725 37025 ft 488 kts 136°
2026-05-05 21:18 41.69511 22.32060 37020 ft 488 kts 136°
2026-05-05 21:18 41.64666 22.38343 37021 ft 487 kts 136°
2026-05-05 21:19 41.59786 22.44657 37024 ft 488 kts 136°
2026-05-05 21:19 41.55726 22.49899 37019 ft 489 kts 136°
2026-05-05 21:20 41.50011 22.57262 37025 ft 490 kts 136°
2026-05-05 21:20 41.45929 22.62509 37033 ft 490 kts 136°
2026-05-05 21:21 41.41011 22.68820 37033 ft 490 kts 136°
2026-05-05 21:21 41.36090 22.75123 37043 ft 490 kts 136°
2026-05-05 21:22 41.31350 22.81653 37049 ft 490 kts 130°
2026-05-05 21:22 41.26917 22.88470 37038 ft 491 kts 130°
2026-05-05 21:23 41.22435 22.95384 37039 ft 491 kts 130°
2026-05-05 21:23 41.17995 23.02221 37048 ft 491 kts 130°
2026-05-05 21:24 41.13522 23.09093 37046 ft 491 kts 130°
2026-05-05 21:24 41.09053 23.15945 37039 ft 489 kts 130°
2026-05-05 21:25 41.04619 23.22726 37051 ft 489 kts 130°
2026-05-05 21:25 41.00159 23.29532 37030 ft 489 kts 130°
2026-05-05 21:26 40.95673 23.36362 37041 ft 492 kts 130°
2026-05-05 21:26 40.91206 23.43149 37066 ft 491 kts 130°
2026-05-05 21:27 40.86714 23.49957 37041 ft 489 kts 130°
2026-05-05 21:27 40.82224 23.56747 37045 ft 490 kts 130°
2026-05-05 21:28 40.77760 23.63484 37040 ft 490 kts 130°
2026-05-05 21:28 40.73265 23.70252 37050 ft 490 kts 130°
2026-05-05 21:29 40.68760 23.77020 37058 ft 490 kts 130°
2026-05-05 21:29 40.64255 23.83772 37048 ft 489 kts 130°
2026-05-05 21:30 40.59771 23.90479 37053 ft 490 kts 130°
2026-05-05 21:30 40.55286 23.97171 37053 ft 490 kts 130°
2026-05-05 21:31 40.50767 24.03900 37052 ft 490 kts 130°
2026-05-05 21:31 40.46252 24.10608 37056 ft 489 kts 130°
2026-05-05 21:32 40.41772 24.17250 37053 ft 488 kts 130°
2026-05-05 21:32 40.37247 24.23943 37054 ft 490 kts 130°
2026-05-05 21:33 40.32721 24.30623 37052 ft 490 kts 130°
2026-05-05 21:33 40.28187 24.37301 37053 ft 490 kts 130°
2026-05-05 21:34 40.23667 24.43944 37054 ft 490 kts 130°
2026-05-05 21:34 40.19151 24.50566 37054 ft 490 kts 130°
2026-05-05 21:35 40.14596 24.57230 37053 ft 490 kts 130°
2026-05-05 21:35 40.10073 24.63834 37053 ft 490 kts 130°
2026-05-05 21:36 40.05518 24.70470 37056 ft 490 kts 130°
2026-05-05 21:36 40.00961 24.77095 37057 ft 490 kts 130°
2026-05-05 21:37 39.96404 24.83705 37052 ft 490 kts 130°
2026-05-05 21:37 39.91860 24.90282 37053 ft 490 kts 130°
2026-05-05 21:38 39.87289 24.96884 37051 ft 490 kts 130°
2026-05-05 21:38 39.82743 25.03435 37071 ft 490 kts 131°
2026-05-05 21:39 39.78165 25.10019 37043 ft 489 kts 131°
2026-05-05 21:39 39.73588 25.16588 37050 ft 489 kts 131°
2026-05-05 21:40 39.69040 25.23101 37053 ft 489 kts 131°
2026-05-05 21:40 39.64449 25.29662 37055 ft 489 kts 131°
2026-05-05 21:41 39.59864 25.36199 37074 ft 489 kts 131°
2026-05-05 21:41 39.55314 25.42673 37055 ft 487 kts 131°
2026-05-05 21:42 39.50738 25.49172 37056 ft 488 kts 131°
2026-05-05 21:42 39.46153 25.55668 37061 ft 488 kts 131°
2026-05-05 21:43 39.41592 25.62117 37062 ft 487 kts 131°
2026-05-05 21:43 39.37000 25.68597 37071 ft 487 kts 131°
2026-05-05 21:44 39.32416 25.75052 37057 ft 487 kts 131°
2026-05-05 21:44 39.27861 25.81452 37062 ft 487 kts 131°
2026-05-05 21:45 39.23266 25.87896 37061 ft 487 kts 131°
2026-05-05 21:45 39.18662 25.94337 37042 ft 487 kts 131°
2026-05-05 21:46 39.14074 26.00745 37068 ft 490 kts 131°
2026-05-05 21:46 39.09454 26.07184 37065 ft 489 kts 131°
2026-05-05 21:47 39.04818 26.13633 37063 ft 490 kts 132°
2026-05-05 21:47 39.00210 26.20032 37065 ft 490 kts 132°
2026-05-05 21:48 38.95566 26.26467 37094 ft 490 kts 132°
2026-05-05 21:48 38.90951 26.32849 37071 ft 490 kts 132°
2026-05-05 21:49 38.86303 26.39277 37073 ft 491 kts 130°
2026-05-05 21:49 38.84311 26.42806 37061 ft 487 kts 115°
2026-05-05 21:49 38.83066 26.46813 37085 ft 480 kts 100°
2026-05-05 21:50 38.81934 26.55182 37067 ft 479 kts 95°
2026-05-05 21:50 38.80865 26.63650 37071 ft 480 kts 95°
2026-05-05 21:51 38.79815 26.72049 37080 ft 479 kts 95°
2026-05-05 21:51 38.78757 26.80479 37071 ft 478 kts 95°
2026-05-05 21:52 38.77136 26.93085 37077 ft 479 kts 99°
2026-05-05 21:52 38.75990 26.97128 37062 ft 483 kts 116°
2026-05-05 21:53 38.74160 27.00690 37095 ft 486 kts 124°
2026-05-05 21:53 38.70151 27.07732 37068 ft 489 kts 125°
2026-05-05 21:54 38.66058 27.14727 37080 ft 492 kts 125°
2026-05-05 21:54 38.61937 27.21712 37092 ft 491 kts 126°
2026-05-05 21:55 38.57822 27.28674 37083 ft 490 kts 126°
2026-05-05 21:55 38.53730 27.35580 37086 ft 490 kts 126°
2026-05-05 21:56 38.49609 27.42522 37087 ft 490 kts 126°
2026-05-05 21:56 38.45477 27.49469 37096 ft 490 kts 126°
2026-05-05 21:57 38.41378 27.56346 37087 ft 489 kts 126°
2026-05-05 21:57 38.37247 27.63262 37088 ft 489 kts 126°
2026-05-05 21:58 38.33113 27.70168 37076 ft 490 kts 126°
2026-05-05 21:58 38.28996 27.77031 37076 ft 491 kts 126°
2026-05-05 21:59 38.24841 27.83944 37086 ft 491 kts 126°
2026-05-05 21:59 38.20681 27.90850 37087 ft 491 kts 126°
2026-05-05 22:00 38.16540 27.97710 37082 ft 491 kts 126°
2026-05-05 22:00 38.12365 28.04612 37087 ft 491 kts 126°
2026-05-05 22:01 38.08200 28.11483 37092 ft 488 kts 126°
2026-05-05 22:01 38.04081 28.18265 37078 ft 487 kts 126°
2026-05-05 22:02 37.99927 28.25089 37067 ft 488 kts 127°
2026-05-05 22:02 37.95772 28.31901 37076 ft 489 kts 127°
2026-05-05 22:03 37.91619 28.38693 37095 ft 489 kts 127°
2026-05-05 22:03 37.87455 28.45492 37078 ft 488 kts 127°
2026-05-05 22:04 37.83274 28.52304 37076 ft 489 kts 127°
2026-05-05 22:04 37.79115 28.59067 37080 ft 488 kts 127°
2026-05-05 22:05 37.74924 28.65870 37088 ft 489 kts 127°
2026-05-05 22:05 37.71255 28.72979 36990 ft 485 kts 109°
2026-05-05 22:05 37.69960 28.76914 37102 ft 487 kts 115°
2026-05-05 22:06 37.68461 28.80767 36889 ft 487 kts 114°
2026-05-05 22:06 37.67023 28.84611 36539 ft 478 kts 113°
2026-05-05 22:06 37.65646 28.88349 36184 ft 472 kts 112°
2026-05-05 22:06 37.64280 28.92090 35705 ft 468 kts 112°
2026-05-05 22:07 37.62920 28.95824 35166 ft 466 kts 112°
2026-05-05 22:07 37.61564 28.99542 34590 ft 466 kts 112°
2026-05-05 22:07 37.60212 29.03246 34050 ft 465 kts 112°
2026-05-05 22:07 37.59310 29.05713 33650 ft 464 kts 112°
2026-05-05 22:08 37.57956 29.09415 33097 ft 462 kts 112°
2026-05-05 22:08 37.56183 29.14255 32438 ft 457 kts 112°
2026-05-05 22:08 37.55296 29.16673 32114 ft 455 kts 112°
2026-05-05 22:08 37.53969 29.20291 31608 ft 452 kts 112°
2026-05-05 22:09 37.52651 29.23875 31128 ft 449 kts 112°
2026-05-05 22:09 37.51339 29.27442 30636 ft 446 kts 112°
2026-05-05 22:09 37.50035 29.30983 30126 ft 443 kts 112°
2026-05-05 22:09 37.48739 29.34496 29579 ft 440 kts 112°
2026-05-05 22:10 37.47449 29.37990 29106 ft 435 kts 112°
2026-05-05 22:10 37.46190 29.41395 28661 ft 431 kts 113°
2026-05-05 22:10 37.44893 29.44782 28134 ft 428 kts 114°
2026-05-05 22:10 37.43599 29.48151 27687 ft 424 kts 114°
2026-05-05 22:11 37.42321 29.51481 27260 ft 420 kts 114°
2026-05-05 22:11 37.41061 29.54766 26866 ft 416 kts 114°
2026-05-05 22:11 37.39807 29.58029 26429 ft 412 kts 114°
2026-05-05 22:11 37.38565 29.61262 26025 ft 408 kts 114°
2026-05-05 22:12 37.37335 29.64456 25590 ft 405 kts 114°
2026-05-05 22:12 37.36107 29.67645 25201 ft 402 kts 114°
2026-05-05 22:12 37.34712 29.70601 24928 ft 396 kts 130°
2026-05-05 22:12 37.32676 29.72850 24778 ft 386 kts 150°
2026-05-05 22:13 37.30272 29.74356 24723 ft 387 kts 157°
2026-05-05 22:13 37.27822 29.75780 24545 ft 387 kts 158°
2026-05-05 22:13 37.25372 29.77167 24328 ft 385 kts 158°
2026-05-05 22:13 37.22931 29.78526 24129 ft 384 kts 158°
2026-05-05 22:14 37.20484 29.79875 23909 ft 382 kts 158°
2026-05-05 22:14 37.18093 29.81241 23709 ft 382 kts 152°
2026-05-05 22:14 37.16010 29.83269 23452 ft 381 kts 132°
2026-05-05 22:14 37.14575 29.86038 23251 ft 378 kts 111°
2026-05-05 22:15 37.13875 29.89201 23062 ft 374 kts 96°
2026-05-05 22:15 37.13526 29.92438 22885 ft 374 kts 95°
2026-05-05 22:15 37.13239 29.95682 22649 ft 373 kts 93°
2026-05-05 22:15 37.12984 29.98883 22456 ft 371 kts 93°
2026-05-05 22:16 37.12740 30.02102 22272 ft 370 kts 92°
2026-05-05 22:16 37.12489 30.05314 22047 ft 369 kts 93°
2026-05-05 22:16 37.12235 30.08503 21845 ft 367 kts 93°
2026-05-05 22:16 37.11984 30.11696 21664 ft 366 kts 94°
2026-05-05 22:17 37.11737 30.14819 21471 ft 362 kts 94°
2026-05-05 22:17 37.11491 30.17930 21267 ft 353 kts 94°
2026-05-05 22:17 37.11249 30.20967 21080 ft 345 kts 94°
2026-05-05 22:17 37.11007 30.23932 20837 ft 338 kts 94°
2026-05-05 22:18 37.10774 30.26801 20697 ft 328 kts 93°
2026-05-05 22:18 37.10555 30.29607 20468 ft 320 kts 90°
2026-05-05 22:18 37.10802 30.32329 20117 ft 310 kts 68°
2026-05-05 22:18 37.11783 30.34665 19693 ft 300 kts 46°
2026-05-05 22:19 37.13314 30.36347 19311 ft 289 kts 26°
2026-05-05 22:19 37.15148 30.37286 18911 ft 281 kts 10°
2026-05-05 22:19 37.17025 30.37790 18517 ft 279 kts
2026-05-05 22:19 37.18928 30.38204 18125 ft 276 kts
2026-05-05 22:20 37.20826 30.38553 17686 ft 274 kts
2026-05-05 22:20 37.22724 30.38861 17225 ft 274 kts
2026-05-05 22:20 37.24613 30.39146 16810 ft 272 kts
2026-05-05 22:20 37.26488 30.39418 16394 ft 271 kts
2026-05-05 22:21 37.28368 30.39682 15988 ft 270 kts
2026-05-05 22:21 37.30190 30.40120 15550 ft 273 kts 19°
2026-05-05 22:21 37.31705 30.41571 15118 ft 280 kts 50°
2026-05-05 22:21 37.32593 30.43772 14698 ft 284 kts 72°
2026-05-05 22:22 37.32813 30.46236 14329 ft 285 kts 94°
2026-05-05 22:22 37.32263 30.48578 13950 ft 284 kts 120°
2026-05-05 22:22 37.30980 30.50427 13556 ft 280 kts 145°
2026-05-05 22:22 37.29277 30.51574 13156 ft 276 kts 156°
2026-05-05 22:23 37.27549 30.52622 12764 ft 275 kts 155°
2026-05-05 22:23 37.25854 30.53683 12391 ft 274 kts 155°
2026-05-05 22:23 37.24154 30.54762 12026 ft 272 kts 154°
2026-05-05 22:23 37.22468 30.55841 11633 ft 271 kts 154°
2026-05-05 22:24 37.20812 30.56904 11276 ft 269 kts 154°
2026-05-05 22:24 37.19147 30.57977 11044 ft 267 kts 154°
2026-05-05 22:24 37.17482 30.59051 10998 ft 269 kts 154°
2026-05-05 22:24 37.15815 30.60130 10995 ft 269 kts 154°
2026-05-05 22:25 37.14159 30.61199 10997 ft 264 kts 154°
2026-05-05 22:25 37.12565 30.62222 10998 ft 259 kts 154°
2026-05-05 22:25 37.10963 30.63254 11026 ft 258 kts 154°
2026-05-05 22:25 37.09360 30.64289 11007 ft 258 kts 154°
2026-05-05 22:26 37.07764 30.65320 11000 ft 258 kts 154°
2026-05-05 22:26 37.06185 30.66341 10999 ft 258 kts 154°
2026-05-05 22:26 37.04583 30.67377 10997 ft 258 kts 154°
2026-05-05 22:26 37.02943 30.68216 10791 ft 251 kts 172°
2026-05-05 22:27 37.01226 30.68256 10316 ft 249 kts 185°
2026-05-05 22:27 36.99496 30.68143 9876 ft 248 kts 186°
2026-05-05 22:27 36.97778 30.68020 9378 ft 247 kts 185°
2026-05-05 22:27 36.96071 30.67890 8933 ft 244 kts 186°
2026-05-05 22:28 36.94379 30.67757 8483 ft 243 kts 185°
2026-05-05 22:28 36.92702 30.67622 8043 ft 241 kts 185°
2026-05-05 22:28 36.91032 30.67484 7602 ft 239 kts 185°
2026-05-05 22:28 36.89366 30.67346 7126 ft 240 kts 185°
2026-05-05 22:29 36.87704 30.67209 6706 ft 238 kts 185°
2026-05-05 22:29 36.86066 30.67074 6259 ft 238 kts 184°
2026-05-05 22:29 36.84429 30.66937 5901 ft 232 kts 184°
2026-05-05 22:29 36.82819 30.66803 5570 ft 230 kts 184°
2026-05-05 22:30 36.81216 30.66670 5473 ft 229 kts 184°
2026-05-05 22:30 36.79691 30.66544 5471 ft 210 kts 185°
2026-05-05 22:30 36.78268 30.66426 5516 ft 203 kts 185°
2026-05-05 22:30 36.76864 30.66309 5511 ft 202 kts 185°
2026-05-05 22:31 36.75456 30.66191 5485 ft 203 kts 184°
2026-05-05 22:31 36.74066 30.66077 5482 ft 202 kts 184°
2026-05-05 22:31 36.72687 30.66196 5378 ft 197 kts 158°
2026-05-05 22:31 36.71723 30.67341 4896 ft 196 kts 111°
2026-05-05 22:32 36.71451 30.68988 4436 ft 194 kts 95°
2026-05-05 22:32 36.71287 30.70662 4011 ft 193 kts 96°
2026-05-05 22:32 36.71129 30.72314 3608 ft 191 kts 96°
2026-05-05 22:32 36.70987 30.73953 3235 ft 188 kts 91°
2026-05-05 22:33 36.71329 30.75460 3001 ft 185 kts 55°
2026-05-05 22:33 36.72306 30.76483 2942 ft 186 kts 24°
2026-05-05 22:33 36.73576 30.76883 2970 ft 187 kts 10°
2026-05-05 22:33 36.74784 30.77125 2835 ft 168 kts
2026-05-05 22:34 36.75880 30.77306 2634 ft 150 kts
2026-05-05 22:34 36.76896 30.77458 2443 ft 145 kts
2026-05-05 22:34 36.77898 30.77600 2265 ft 144 kts
2026-05-05 22:34 36.78888 30.77740 2085 ft 143 kts
2026-05-05 22:35 36.79873 30.77876 1898 ft 141 kts
2026-05-05 22:35 36.80844 30.78010 1719 ft 140 kts
2026-05-05 22:35 36.81806 30.78143 1568 ft 139 kts
2026-05-05 22:35 36.82752 30.78273 1353 ft 138 kts
2026-05-05 22:36 36.83711 30.78404 1163 ft 139 kts
2026-05-05 22:36 36.84662 30.78538 964 ft 136 kts
2026-05-05 22:36 36.85601 30.78661 810 ft 134 kts
2026-05-05 22:36 36.86518 30.78780 634 ft 132 kts
2026-05-05 22:37 36.87433 30.78917 397 ft 133 kts
2026-05-05 22:37 36.88363 30.79034 260 ft 134 kts
2026-05-05 22:37 36.89244 30.79147 195 ft 117 kts
2026-05-05 22:37 36.89867 30.79240 192 ft 68 kts
2026-05-05 22:38 36.90223 30.79296 197 ft 32 kts
2026-05-05 22:38 36.90334 30.79356 199 ft 12 kts 35°
2026-05-05 22:38 36.90396 30.79414 198 ft 7 kts 37°
2026-05-05 22:38 36.90444 30.79459 193 ft 10 kts 36°
2026-05-05 22:39 36.90475 30.79516 197 ft 9 kts 97°
2026-05-05 22:39 36.90448 30.79545 197 ft 2 kts 171°
2026-05-05 22:39 36.90428 30.79560 198 ft 5 kts 136°
2026-05-05 22:39 36.90412 30.79608 205 ft 7 kts 115°
2026-05-05 22:40 36.90366 30.79637 206 ft 9 kts 183°
2026-05-05 22:40 36.90297 30.79627 199 ft 10 kts 186°
2026-05-05 22:40 36.90224 30.79618 198 ft 11 kts 186°
2026-05-05 22:40 36.90141 30.79607 195 ft 13 kts 186°
2026-05-05 22:41 36.90051 30.79595 204 ft 13 kts 186°
2026-05-05 22:41 36.89948 30.79581 197 ft 12 kts 187°
2026-05-05 22:41 36.89878 30.79572 197 ft 9 kts 186°
2026-05-05 22:41 36.89844 30.79596 196 ft 3 kts 108°
2026-05-05 22:42 36.89840 30.79637 194 ft 6 kts 96°
2026-05-05 22:42 36.89834 30.79708 200 ft 10 kts 97°
2026-05-05 22:42 36.89826 30.79796 194 ft 9 kts 96°
2026-05-05 22:42 36.89820 30.79864 204 ft 7 kts 96°
2026-05-05 22:43 36.89817 30.79901 199 ft 5 kts 95°
2026-05-05 22:43 36.89821 30.79941 194 ft 2 kts 85°
2026-05-05 22:43 36.89822 30.79963 201 ft 3 kts 86°
2026-05-05 22:43 36.89822 30.79987 204 ft 2 kts 89°
2026-05-05 22:44 36.89823 30.79999 200 ft 0 kts 89°